Theta_e
355 358 360 361 360 358 358 358 357 358 358 358 358 357 356 356 356 357 357 357 358 357 357 357 357 353 353 352 352 353 353 353
353 357 359 360 360 359 358 357 358 359 359 359 358 357 356 356 355 356 356 356 356 355 355 356 355 354 354 353 353 353 352 351
352 356 357 359 360 358 357 358 358 358 359 359 358 358 356 355 355 355 356 355 355 354 354 354 353 354 353 353 352 352 352 349
352 354 356 355 357 359 357 357 357 357 359 359 358 357 356 355 355 355 355 355 355 355 354 354 354 353 352 352 352 351 351 349
351 352 353 354 354 353 354 357 357 357 358 358 357 356 355 354 354 353 352 354 352 353 353 353 353 353 352 351 351 351 350 349
349 350 352 352 352 350 350 353 356 356 356 356 356 355 352 347 349 350 349 349 352 352 353 352 352 352 351 351 350 349 348 342
344 348 350 350 348 350 352 350 350 350 350 349 349 349 346 345 346 348 349 352 352 353 353 353 352 352 351 345 342 343 337 335
343 345 349 349 348 348 348 348 347 348 348 346 346 346 344 344 344 345 343 342 344 345 346 346 343 341 340 339 338 337 335 334
341 344 346 348 347 347 347 346 347 348 345 343 344 344 341 340 339 338 340 341 341 342 341 341 340 339 337 336 335 335 336 335
340 343 345 347 347 348 345 345 345 344 344 343 342 342 342 338 336 336 337 340 341 341 340 339 338 338 337 336 336 336 337 338
341 341 343 345 346 347 344 343 342 343 343 341 340 340 341 338 336 334 334 337 339 341 341 339 339 339 338 337 337 338 339 340
338 341 341 343 340 343 342 341 340 340 340 339 338 339 340 340 336 334 332 335 339 342 342 341 339 339 337 337 337 337 337 337
333 336 338 342 335 335 334 334 336 336 336 337 338 338 339 341 340 338 336 338 343 342 341 341 341 339 336 334 334 336 338 341
335 336 339 338 335 336 337 334 335 337 337 338 338 338 339 340 342 341 341 344 347 346 346 343 341 336 335 334 332 336 339 340
336 337 338 338 335 337 340 343 340 339 342 344 342 341 342 342 343 343 344 347 347 345 343 341 339 338 333 330 331 333 334 336
335 334 334 333 333 335 335 338 342 342 344 347 346 347 348 348 347 345 347 346 344 340 340 340 339 336 333 332 330 333 334 335
333 333 333 332 332 334 337 338 344 345 346 346 345 345 346 346 345 345 343 339 338 338 338 338 337 334 334 334 330 328 324 329
332 332 328 329 334 336 337 336 339 343 343 341 342 339 340 341 341 340 339 339 336 335 332 330 333 334 331 333 333 329 324 323
328 327 327 327 329 329 333 334 336 336 330 338 334 335 333 335 334 331 330 329 328 325 321 322 322 324 329 320 328 324 330 323
Wind_Speed
14 12 15 15 14 16 18 17 16 15 14 13 13 12 11 12 11 10 9 8 8 8 6 5 4 3 3 2 2 4 5 6
14 11 12 14 14 15 17 17 15 14 13 12 11 10 9 9 8 7 7 6 6 5 4 3 1 1 2 3 4 5 6 7
17 13 10 14 13 13 16 16 15 14 12 11 10 9 8 7 7 6 5 4 3 2 1 1 2 4 6 6 7 8 8 10
14 12 10 8 11 13 13 15 14 12 10 9 9 8 7 7 6 5 4 3 2 0 1 3 4 6 7 8 8 9 10 12
12 11 9 6 6 6 6 12 13 12 11 9 8 8 7 6 5 4 3 1 2 3 4 5 7 7 7 8 9 9 11 12
8 8 8 7 5 4 4 7 10 13 12 10 8 8 6 3 3 3 3 4 5 6 6 8 8 8 9 9 9 10 11 4
11 10 7 6 6 6 3 4 5 6 5 4 5 5 4 4 3 3 3 5 6 7 8 8 9 9 9 4 4 8 4 5
14 9 11 6 6 6 4 3 2 2 3 3 4 4 4 3 2 1 2 2 2 5 3 4 5 4 5 4 5 5 6 6
13 13 12 12 9 5 3 2 3 3 2 2 3 4 3 1 2 2 2 3 3 3 4 4 3 4 6 6 6 7 7 6
14 14 14 11 8 6 5 3 3 2 3 3 3 4 3 3 3 3 4 3 3 2 3 4 4 5 6 6 6 6 8 8
13 14 14 14 11 11 7 7 4 3 3 3 2 3 4 3 3 4 4 4 4 3 3 3 4 5 6 4 7 6 7 7
11 12 14 10 6 8 6 5 4 4 4 3 3 5 4 3 4 5 4 4 4 3 4 3 4 3 4 5 6 6 5 6
10 11 9 8 7 5 3 1 2 3 4 3 2 3 6 7 7 5 4 5 4 3 1 2 3 4 3 4 4 5 5 5
13 13 10 8 8 7 6 5 5 5 4 3 4 5 7 7 7 7 6 3 2 2 2 2 2 1 3 4 5 5 5 4
13 12 10 9 9 7 5 5 4 4 5 4 4 6 6 5 7 6 3 1 1 2 2 2 1 1 2 4 7 8 6 5
9 12 11 12 9 6 2 2 2 3 3 3 3 6 4 2 3 5 1 3 3 4 3 3 1 2 2 4 4 6 2 5
13 12 11 7 7 4 3 3 2 2 2 5 6 9 7 7 3 3 3 4 2 3 4 4 4 2 1 3 3 2 5 4
12 7 7 7 7 5 6 4 2 3 3 3 9 9 12 9 8 6 6 5 6 5 6 5 5 6 2 2 2 1 4 3
6 8 8 7 6 7 7 5 5 3 5 6 12 5 4 8 6 9 9 8 7 5 7 6 5 4 3 3 2 5 2 3
Wind_Direction
140 136 149 150 150 147 141 139 137 133 133 136 137 136 132 130 132 133 137 140 142 138 134 125 109 93 77 46 8 348 336 328
137 140 143 149 153 152 144 141 139 138 139 138 135 132 127 125 124 123 131 135 142 143 139 107 56 9 339 323 325 323 317 316
134 145 143 153 155 156 149 147 147 146 145 140 135 125 119 114 115 118 118 121 134 143 161 314 311 309 313 316 317 317 314 316
128 141 143 151 163 161 157 152 149 147 141 130 123 118 118 120 117 128 141 152 165 155 305 305 300 296 298 307 311 313 314 319
129 141 146 139 147 140 157 154 148 146 139 128 123 127 129 129 141 155 157 174 231 251 266 272 274 278 284 291 296 298 305 312
124 132 142 146 139 116 134 157 145 150 142 141 149 142 139 137 147 169 184 213 234 241 245 252 263 276 283 284 289 294 301 299
142 149 146 155 138 154 144 127 132 153 139 150 153 157 151 158 172 195 222 238 249 260 267 274 276 278 284 280 284 296 291 284
147 156 156 148 157 164 125 116 129 132 137 156 160 159 165 168 180 210 258 270 265 269 266 277 286 283 284 285 289 283 278 277
153 158 168 173 175 149 134 141 156 154 137 158 163 178 163 191 215 234 241 247 251 248 268 273 279 289 288 284 278 289 284 281
159 165 170 162 160 157 136 139 195 168 160 169 169 196 182 195 217 235 259 257 259 267 252 268 280 279 283 280 276 266 285 281
163 171 176 179 168 166 164 172 188 179 175 182 202 225 211 206 217 229 249 254 264 256 256 259 264 285 291 291 293 275 271 278
162 160 176 168 157 166 180 185 180 183 182 197 213 218 227 221 231 244 253 261 264 277 276 266 289 292 291 291 273 287 283 281
131 149 153 162 145 125 130 211 190 183 172 196 195 221 223 215 210 232 246 246 256 262 242 286 299 309 297 299 298 296 297 307
143 137 136 139 152 154 162 163 182 185 209 196 192 208 225 222 220 221 232 250 265 284 302 316 315 276 300 309 304 288 279 270
158 151 133 130 139 143 134 153 180 177 178 189 226 231 223 219 226 229 221 221 332 328 2 356 316 311 297 312 309 300 288 279
150 145 155 149 160 152 167 133 114 164 175 132 24 336 329 317 252 251 130 101 65 54 32 2 323 3 345 328 309 316 264 300
165 162 168 136 133 154 116 74 15 214 263 100 72 32 15 21 5 38 51 77 120 126 61 358 33 354 9 355 325 298 330 341
173 143 123 122 142 150 114 82 13 320 314 26 77 44 352 19 31 49 55 65 61 66 70 46 33 42 5 305 15 313 323 320
115 106 118 128 94 63 68 75 65 34 6 50 65 61 336 22 34 60 58 52 51 53 61 49 32 30 30 17 322 5 345 9